[[{"header":{"parameterUnit":"m.s-1","parameterCategory":1,"la1":30.2992,"la2":30.254,"lo1":-89.0895,"lo2":-89.0443,"dy":0.0025,"dx":0.0025,"nx":19,"ny":19,"refTime":"2026-04-07T09:00:00:Z","depth":0,"parameterNumber":2,"parameterNumberName":"U-component_of_WINDS"},"data":[0,0,0,-5.1026,-5.1027,-5.1037,-5.1036,-5.1108,-5.1109,0,0,0,0,0,0,0,0,0,0,0,-5.1057,-5.1059,-5.1026,-5.1027,-5.1037,-5.1036,-5.1108,-5.1109,0,0,0,0,0,0,0,0,0,0,0,-5.1057,-5.1059,-5.1061,-5.1027,-5.1037,-5.1036,-5.1108,-5.108,0,0,0,0,0,0,0,0,0,0,-5.106,-5.1122,-5.1058,-5.1061,-5.1028,-5.1037,-5.1036,-5.1077,-5.1081,-5.1129,0,-5.1178,0,-5.1145,-5.1118,-5.1118,0,0,0,-5.1002,-5.1119,-5.109,-5.1061,-5.1028,-5.1037,-5.1025,-5.1079,-5.1084,-5.1134,-5.1178,-5.1179,-5.1146,-5.1118,-5.1119,-5.1471,-5.1474,0,0,-5.1002,-5.1078,-5.1088,-5.1095,-5.1095,-5.1025,-5.1026,-5.1081,-5.1135,-5.1178,-5.118,-5.1147,-5.1119,-5.112,-5.1468,-5.1472,0,0,0,-5.1017,-5.1079,-5.1047,-5.1094,-5.1091,-5.1026,-5.1027,-5.1132,-5.1115,-5.118,-5.1148,-5.112,-5.1121,-5.1465,-5.147,-5.1683,0,0,0,-5.1015,-5.1087,-5.1049,-5.1095,-5.1091,-5.1111,-5.1078,-5.1112,-5.1115,-5.1148,-5.112,-5.1123,-5.1462,-5.1467,-5.167,-5.1772,0,0,0,-5.1045,-5.109,-5.1103,-5.1099,-5.1106,-5.1108,-5.1094,-5.1111,-5.1097,-5.1118,-5.1123,-5.146,-5.1466,-5.1659,-5.1753,-5.1888,0,0,0,-5.1099,-5.1293,-5.1108,-5.1312,-5.1107,-5.124,-5.1093,-5.1189,-5.1232,-5.1121,-5.1462,-5.1469,-5.1655,-5.1741,-5.1876,-5.2016,-5.208,0,0,-5.1386,-5.133,-5.1444,-5.1279,-5.1465,-5.1232,-5.145,-5.1418,-5.1351,-5.1435,-5.1443,-5.1674,-5.1751,-5.1885,-5.2415,-5.2468,0,0,0,-5.1561,-5.1645,-5.1677,-5.1721,-5.1701,-5.1692,-5.1619,-5.1607,-5.1675,-5.1409,-5.1756,-5.18,-5.1875,-5.1939,-5.1983,-5.2044,-5.1501,-5.15,-5.15,-5.2079,-5.1981,-5.2164,-5.2069,-5.2114,-5.2036,-5.2064,-5.2035,-5.1925,-5.2009,-5.2034,-5.2367,-5.2444,-5.2477,-5.2541,-5.2098,-5.2099,-5.21,-5.21,-5.2491,-5.2595,-5.2442,-5.2565,-5.2462,-5.2565,-5.2498,-5.2417,-5.2499,-5.234,-5.2401,-5.2238,-5.2537,-5.2588,-5.2115,-5.2113,-5.2111,-5.2109,-5.2108,-5.282,-5.2853,-5.2834,-5.2889,-5.2942,-5.2839,-5.2925,-5.2827,-5.2737,-5.2798,-5.2815,-5.2811,-5.2797,-5.2812,-5.2814,-5.2815,-5.2816,-5.2817,-5.2817,-5.317,-5.3142,-5.3225,-5.322,-5.3236,-5.3245,-5.317,-5.3184,-5.3175,-5.3098,-5.3097,-5.2981,-5.2583,-5.2487,-5.2835,-5.2832,-5.2829,-5.2828,-5.2827,-5.3627,-5.3508,-5.3637,-5.3654,-5.364,-5.3701,-5.3575,-5.3613,-5.361,-5.3656,-5.3526,-5.3247,-5.3183,-5.3148,-5.3067,-5.3544,-5.3544,-5.3544,-5.3544,-5.3906,-5.3864,-5.3974,-5.4007,-5.4027,-5.3927,-5.4079,-5.4024,-5.3948,-5.3941,-5.3857,-5.3742,-5.3709,-5.3665,-5.3618,-5.3541,-5.4128,-5.4129,-5.4129,-5.4183,-5.4138,-5.4285,-5.4207,-5.419,-5.4178,-5.4318,-5.4364,-5.4253,-5.4151,-5.3934,-5.3909,-5.3721,-5.3665,-5.356,-5.3488,-5.3345,0,0]},{"header":{"parameterUnit":"m.s-1","parameterCategory":1,"la1":30.2992,"la2":30.254,"lo1":-89.0895,"lo2":-89.0443,"dy":0.0025,"dx":0.0025,"nx":19,"ny":19,"refTime":"2026-04-07T09:00:00:Z","depth":0,"parameterNumber":3,"parameterNumberName":"V-component_of_WINDS"},"data":[0,0,0,1.6825,1.6822,1.6664,1.6663,1.6486,1.6485,0,0,0,0,0,0,0,0,0,0,0,1.6891,1.689,1.6825,1.6822,1.6664,1.6663,1.6487,1.6485,0,0,0,0,0,0,0,0,0,0,0,1.6891,1.689,1.689,1.6821,1.6664,1.6663,1.6487,1.6596,0,0,0,0,0,0,0,0,0,0,1.6745,1.6825,1.689,1.689,1.6821,1.6664,1.6663,1.6601,1.659,1.6571,0,1.6561,0,1.6521,1.6475,1.6475,0,0,0,1.6806,1.6835,1.6776,1.689,1.6819,1.6664,1.6731,1.6594,1.6581,1.6555,1.6559,1.6551,1.6518,1.6474,1.6474,1.6425,1.6426,0,0,1.6815,1.6871,1.6785,1.6768,1.6798,1.6736,1.6726,1.6586,1.6592,1.6558,1.6547,1.6515,1.6473,1.6472,1.6424,1.6425,0,0,0,1.6851,1.6878,1.6822,1.6777,1.6746,1.6732,1.672,1.6598,1.6575,1.6544,1.6513,1.6473,1.6471,1.6424,1.6425,1.6505,0,0,0,1.6855,1.6898,1.6826,1.6859,1.675,1.6671,1.6736,1.6585,1.6567,1.6514,1.6473,1.6469,1.6423,1.6424,1.6502,1.6533,0,0,0,1.6894,1.6903,1.6887,1.6862,1.6797,1.6672,1.664,1.658,1.6549,1.6475,1.6469,1.6423,1.6424,1.6499,1.6527,1.6538,0,0,0,1.6951,1.6957,1.6889,1.6884,1.6798,1.6724,1.664,1.6581,1.6527,1.6472,1.6423,1.6425,1.6498,1.6524,1.6535,1.6556,1.6571,0,0,1.6989,1.6964,1.6956,1.6891,1.6844,1.6744,1.6707,1.6602,1.6541,1.6467,1.6465,1.6503,1.6527,1.6537,1.6634,1.6646,0,0,0,1.6987,1.6983,1.6958,1.6912,1.6836,1.6773,1.6669,1.663,1.6565,1.6516,1.6508,1.652,1.6524,1.6531,1.6541,1.6541,1.6431,1.6431,1.6431,1.7119,1.7047,1.703,1.694,1.6896,1.6791,1.6748,1.6678,1.6613,1.6613,1.659,1.6658,1.6669,1.6676,1.6677,1.6596,1.6596,1.6596,1.6597,1.7169,1.7151,1.7071,1.7026,1.6949,1.6909,1.6809,1.6766,1.6716,1.6668,1.6667,1.6621,1.6692,1.6688,1.6602,1.6601,1.66,1.66,1.6599,1.7246,1.7226,1.7183,1.7112,1.7065,1.6971,1.693,1.6859,1.6792,1.6792,1.676,1.6758,1.6748,1.6782,1.6782,1.6783,1.6783,1.6783,1.6783,1.7344,1.7293,1.7268,1.7192,1.7156,1.7098,1.6996,1.6957,1.6895,1.6846,1.6846,1.6782,1.6714,1.6698,1.6786,1.6786,1.6785,1.6785,1.6785,1.7419,1.7392,1.7354,1.7318,1.7224,1.7183,1.7096,1.7023,1.698,1.6962,1.69,1.6861,1.6828,1.6819,1.6805,1.6916,1.6916,1.6916,1.6916,1.7484,1.7463,1.741,1.7358,1.7298,1.7217,1.7175,1.7098,1.7011,1.698,1.6955,1.6931,1.6925,1.6895,1.6885,1.6871,1.6995,1.6995,1.6995,1.7527,1.7497,1.7476,1.7397,1.7319,1.7254,1.7213,1.7154,1.705,1.6997,1.6955,1.6951,1.6912,1.6903,1.6847,1.6832,1.6805,0,0]}]]